Time,TemperatureF,DewpointF,PressureIn,WindDirection,WindDirectionDegrees,WindSpeedMPH,WindSpeedGustMPH,Humidity,HourlyPrecipIn,Conditions,Clouds,dailyrainin,SoftwareType,DateUTC
2013-01-13 00:05:00,65.0,62.0,29.80,SSW,201,2.0,2.0,90,0.00,,,0.00,Wunderground v.1.15,2013-01-13 05:05:00,
2013-01-13 00:10:00,65.1,62.1,29.79,SW,217,2.0,8.0,90,0.00,,,0.00,Wunderground v.1.15,2013-01-13 05:10:00,
2013-01-13 00:15:00,65.4,62.1,29.78,SSW,194,2.0,8.0,89,0.00,,,0.00,Wunderground v.1.15,2013-01-13 05:15:00,
2013-01-13 00:25:00,66.1,62.1,29.78,WSW,239,3.0,3.0,87,0.00,,,0.00,Wunderground v.1.15,2013-01-13 05:25:00,
2013-01-13 00:34:00,66.7,62.4,29.78,SSW,198,3.0,7.0,86,0.00,,,0.00,Wunderground v.1.15,2013-01-13 05:34:00,
2013-01-13 00:40:00,66.8,62.1,29.78,SSW,201,4.0,4.0,85,0.00,,,0.00,Wunderground v.1.15,2013-01-13 05:40:00,
2013-01-13 00:45:00,66.9,62.2,29.77,South,169,4.0,4.0,85,0.00,,,0.00,Wunderground v.1.15,2013-01-13 05:45:00,
2013-01-13 00:55:00,67.0,62.0,29.76,SW,219,5.0,7.0,84,0.00,,,0.00,Wunderground v.1.15,2013-01-13 05:55:00,
2013-01-13 01:00:00,66.9,61.9,29.75,SSW,207,5.0,5.0,84,0.00,,,0.00,Wunderground v.1.15,2013-01-13 06:00:00,
2013-01-13 01:09:00,67.0,62.0,29.75,South,176,4.0,9.0,84,0.00,,,0.00,Wunderground v.1.15,2013-01-13 06:09:00,
2013-01-13 01:15:00,66.9,61.6,29.74,SSE,165,5.0,9.0,83,0.00,,,0.00,Wunderground v.1.15,2013-01-13 06:15:00,
2013-01-13 01:25:00,66.9,61.6,29.74,SSE,148,4.0,7.0,83,0.00,,,0.00,Wunderground v.1.15,2013-01-13 06:25:00,
2013-01-13 01:35:00,66.8,61.5,29.75,WNW,284,4.0,6.0,83,0.00,,,0.00,Wunderground v.1.15,2013-01-13 06:35:00,
2013-01-13 18:00:00,-999.9,-99.9,29.82,SE,129,2.0,4.0,255,0.04,,,0.79,Wunderground v.1.15,2013-01-13 23:00:00,
2013-01-13 18:10:00,-999.9,-99.9,29.82,South,190,1.0,9.0,255,0.04,,,0.80,Wunderground v.1.15,2013-01-13 23:10:00,
2013-01-13 18:20:00,-999.9,-99.9,29.84,North,11,1.0,1.0,255,0.12,,,0.81,Wunderground v.1.15,2013-01-13 23:20:00,
2013-01-13 18:25:00,-999.9,-99.9,29.85,NNW,333,2.0,4.0,255,0.24,,,0.83,Wunderground v.1.15,2013-01-13 23:25:00,
2013-01-13 18:35:00,-999.9,-99.9,29.86,ESE,117,4.0,9.0,255,0.21,,,0.87,Wunderground v.1.15,2013-01-13 23:35:00,
2013-01-13 18:45:00,-999.9,-99.9,29.88,SSW,211,4.0,9.0,255,0.14,,,0.90,Wunderground v.1.15,2013-01-13 23:45:00,
2013-01-13 18:50:00,-999.9,-99.9,29.89,SSW,211,5.0,5.0,255,0.06,,,0.90,Wunderground v.1.15,2013-01-13 23:50:00,
2013-01-13 18:55:00,-999.9,-99.9,29.89,SE,145,4.0,9.0,255,0.06,,,0.91,Wunderground v.1.15,2013-01-13 23:55:00,
2013-01-13 19:05:00,45.3,-99.9,29.90,ENE,73,2.0,9.0,255,0.05,,,0.92,Wunderground v.1.15,2013-01-14 00:05:00,
2013-01-13 19:15:00,44.7,42.8,29.90,SSW,198,1.0,4.0,93,0.06,,,0.93,Wunderground v.1.15,2013-01-14 00:15:00,
2013-01-13 19:20:00,44.5,42.9,29.90,East,80,1.0,9.0,94,0.06,,,0.93,Wunderground v.1.15,2013-01-14 00:20:00,
2013-01-13 19:30:00,44.2,42.6,29.92,SSE,156,0.0,9.0,94,0.00,,,0.93,Wunderground v.1.15,2013-01-14 00:30:00,
2013-01-13 19:40:00,43.7,42.1,29.92,SE,127,2.0,2.0,94,0.00,,,0.94,Wunderground v.1.15,2013-01-14 00:40:00,
2013-01-13 19:45:00,43.5,41.9,29.93,SE,130,2.0,9.0,94,0.10,,,0.95,Wunderground v.1.15,2013-01-14 00:45:00,
2013-01-13 19:50:00,43.4,42.1,29.94,SE,145,1.0,9.0,95,0.13,,,0.96,Wunderground v.1.15,2013-01-14 00:50:00,
2013-01-13 20:00:00,42.8,41.2,29.95,South,177,1.0,9.0,94,0.11,,,0.98,Wunderground v.1.15,2013-01-14 01:00:00,
2013-01-13 20:10:00,42.1,40.5,29.94,ESE,107,1.0,9.0,94,0.09,,,0.99,Wunderground v.1.15,2013-01-14 01:10:00,
2013-01-13 20:20:00,41.6,40.0,29.95,SW,214,2.0,9.0,94,0.04,,,0.99,Wunderground v.1.15,2013-01-14 01:20:00,
2013-01-13 20:25:00,41.4,39.8,29.96,SE,137,2.0,9.0,94,0.00,,,0.99,Wunderground v.1.15,2013-01-14 01:25:00,
2013-01-13 20:35:00,41.0,39.4,29.98,SE,125,1.0,9.0,94,0.00,,,1.00,Wunderground v.1.15,2013-01-14 01:35:00,
2013-01-13 20:40:00,40.6,38.5,29.98,SW,229,2.0,2.0,92,0.00,,,1.00,Wunderground v.1.15,2013-01-14 01:40:00,
2013-01-13 20:50:00,39.9,37.8,29.99,SSE,155,2.0,2.0,92,0.00,,,1.00,Wunderground v.1.15,2013-01-14 01:50:00,
2013-01-13 20:55:00,39.7,37.6,30.00,SE,129,2.0,6.0,92,0.00,,,1.00,Wunderground v.1.15,2013-01-14 01:55:00,
2013-01-13 21:05:00,39.3,37.7,30.00,East,98,2.0,9.0,94,0.00,,,1.00,Wunderground v.1.15,2013-01-14 02:05:00,
2013-01-13 21:15:00,-999.9,-99.9,30.00,South,179,1.0,9.0,255,0.00,,,1.01,Wunderground v.1.15,2013-01-14 02:15:00,
2013-01-13 21:20:00,-999.9,-99.9,30.00,SE,135,1.0,9.0,255,0.00,,,1.01,Wunderground v.1.15,2013-01-14 02:20:00,
2013-01-13 21:30:00,-999.9,-99.9,30.01,ESE,112,1.0,1.0,255,0.00,,,1.01,Wunderground v.1.15,2013-01-14 02:30:00,
2013-01-13 21:40:00,-999.9,-99.9,30.02,SSE,161,0.0,9.0,255,0.00,,,1.01,Wunderground v.1.15,2013-01-14 02:40:00,
2013-01-13 21:45:00,-999.9,-99.9,30.03,ESE,115,0.0,9.0,255,0.00,,,1.01,Wunderground v.1.15,2013-01-14 02:45:00,
2013-01-13 21:55:00,-999.9,-99.9,30.04,SE,138,1.0,9.0,255,0.00,,,1.01,Wunderground v.1.15,2013-01-14 02:55:00,
2013-01-13 22:00:00,-999.9,-99.9,30.05,ESE,105,1.0,9.0,255,0.00,,,1.01,Wunderground v.1.15,2013-01-14 03:00:00,
2013-01-13 22:10:00,-999.9,-99.9,30.05,ESE,105,0.0,9.0,255,0.00,,,1.01,Wunderground v.1.15,2013-01-14 03:10:00,
2013-01-13 22:15:00,-999.9,-99.9,30.06,SSE,166,0.0,9.0,255,0.00,,,1.01,Wunderground v.1.15,2013-01-14 03:15:00,
2013-01-13 22:20:00,-999.9,-99.9,30.06,South,171,0.0,9.0,255,0.00,,,1.01,Wunderground v.1.15,2013-01-14 03:20:00,
2013-01-13 22:25:00,-999.9,-99.9,30.07,SSE,156,0.0,9.0,255,0.00,,,1.01,Wunderground v.1.15,2013-01-14 03:25:00,
2013-01-13 22:35:00,-999.9,-99.9,30.07,SSE,153,1.0,9.0,255,0.00,,,1.01,Wunderground v.1.15,2013-01-14 03:35:00,
2013-01-13 22:45:00,-999.9,-99.9,30.08,SE,130,1.0,9.0,255,0.00,,,1.01,Wunderground v.1.15,2013-01-14 03:45:00,
2013-01-13 22:55:00,-999.9,-99.9,30.08,ESE,121,0.0,9.0,255,0.00,,,1.01,Wunderground v.1.15,2013-01-14 03:55:00,
2013-01-13 23:00:00,-999.9,-99.9,30.09,South,183,0.0,9.0,255,0.00,,,1.01,Wunderground v.1.15,2013-01-14 04:00:00,
2013-01-13 23:10:00,-999.9,-99.9,30.09,South,187,0.0,9.0,255,0.00,,,1.01,Wunderground v.1.15,2013-01-14 04:10:00,
2013-01-13 23:20:00,-999.9,-99.9,30.10,South,191,1.0,9.0,255,0.00,,,1.01,Wunderground v.1.15,2013-01-14 04:20:00,
2013-01-13 23:30:00,-999.9,-99.9,30.11,SSW,205,1.0,1.0,255,0.00,,,1.01,Wunderground v.1.15,2013-01-14 04:30:00,
2013-01-13 23:40:00,-999.9,-99.9,30.11,WSW,240,0.0,9.0,255,0.00,,,1.01,Wunderground v.1.15,2013-01-14 04:40:00,
2013-01-13 23:50:00,-999.9,-99.9,30.11,SSE,152,1.0,1.0,255,0.00,,,1.01,Wunderground v.1.15,2013-01-14 04:50:00,
2013-01-13 23:55:00,-999.9,-99.9,30.11,SE,132,0.0,9.0,255,0.00,,,1.01,Wunderground v.1.15,2013-01-14 04:55:00,